| time (UTC) | temp F | wind direction | speed MPH | gust MPH | rain 1hr in | rain 24hr in | rain mn in | humidity % | barometer mb |
| 20260831142029 | 75 | 0 | 0.0 | 2.0 | 0.00 | 0.12 | 0.00 | 94 | 1020.2 |
| 20260831141844 | 75 | 46 | 0.0 | 1.0 | 0.00 | 0.12 | 0.00 | 95 | 1019.8 |
| 20260831141602 | 75 | 0 | 0.0 | 0.0 | 0.00 | 0.12 | 0.00 | 95 | 1020.2 |
| 20260831141337 | 75 | 111 | 0.0 | 0.0 | 0.00 | 0.12 | 0.00 | 96 | 1019.7 |
| 20260831141026 | 74 | 0 | 0.0 | 0.0 | 0.00 | 0.12 | 0.00 | 96 | 1020.1 |
| 20260831140828 | 75 | 103 | 0.0 | 0.0 | 0.00 | 0.12 | 0.00 | 96 | 1019.7 |
| 20260831140527 | 74 | 0 | 0.0 | 0.0 | 0.00 | 0.12 | 0.00 | 96 | 1020.1 |
| 20260831140349 | 75 | 103 | 0.0 | 0.0 | 0.00 | 0.12 | 0.00 | 96 | 1019.6 |
| 20260831140047 | 74 | 0 | 0.0 | 0.0 | 0.00 | 0.12 | 0.00 | 96 | 1020.0 |
| 20260831135844 | 74 | 103 | 0.0 | 0.0 | 0.00 | 0.12 | 0.00 | 97 | 1019.7 |
| 20260831135531 | 74 | 0 | 0.0 | 0.0 | 0.00 | 0.12 | 0.00 | 96 | 1020.1 |
| 20260831135339 | 74 | 103 | 0.0 | 0.0 | 0.00 | 0.12 | 0.00 | 97 | 1019.7 |
| 20260831135031 | 73 | 0 | 0.0 | 0.0 | 0.00 | 0.12 | 0.00 | 96 | 1020.2 |
| 20260831134855 | 74 | 103 | 0.0 | 0.0 | 0.00 | 0.12 | 0.00 | 97 | 1019.8 |
| 20260831134545 | 73 | 0 | 0.0 | 0.0 | 0.00 | 0.12 | 0.00 | 97 | 1020.2 |
| 20260831134454 | 74 | 206 | 0.0 | 0.0 | 0.00 | 0.12 | 0.00 | 97 | 1019.8 |
| 20260831134025 | 73 | 0 | 0.0 | 0.0 | 0.00 | 0.12 | 0.00 | 97 | 1020.2 |
| 20260831133528 | 73 | 0 | 0.0 | 0.0 | 0.00 | 0.12 | 0.00 | 97 | 1020.4 |
| 20260831133044 | 72 | 0 | 0.0 | 0.0 | 0.00 | 0.12 | 0.00 | 97 | 1020.3 |
| 20260831132852 | 73 | 210 | 0.0 | 0.0 | 0.00 | 0.12 | 0.00 | 97 | 1019.8 |
| 20260831132525 | 72 | 0 | 0.0 | 0.0 | 0.00 | 0.12 | 0.00 | 97 | 1020.3 |
| 20260831132328 | 73 | 211 | 0.0 | 0.0 | 0.00 | 0.12 | 0.00 | 97 | 1019.8 |
| 20260831132025 | 72 | 0 | 0.0 | 0.0 | 0.00 | 0.12 | 0.00 | 97 | 1020.3 |
| 20260831131909 | 73 | 211 | 0.0 | 0.0 | 0.00 | 0.12 | 0.00 | 97 | 1019.9 |
| 20260831131543 | 72 | 0 | 0.0 | 0.0 | 0.00 | 0.12 | 0.00 | 97 | 1020.4 |
| 20260831131347 | 72 | 211 | 0.0 | 0.0 | 0.00 | 0.12 | 0.00 | 97 | 1019.9 |
| 20260831131025 | 72 | 0 | 0.0 | 0.0 | 0.00 | 0.12 | 0.00 | 97 | 1020.5 |
| 20260831130841 | 72 | 211 | 0.0 | 0.0 | 0.00 | 0.12 | 0.00 | 97 | 1019.9 |
| 20260831130523 | 72 | 0 | 0.0 | 0.0 | 0.00 | 0.12 | 0.00 | 97 | 1020.5 |
| 20260831130400 | 72 | 211 | 0.0 | 0.0 | 0.00 | 0.12 | 0.00 | 97 | 1020.0 |
| 20260831130054 | 72 | 0 | 0.0 | 0.0 | 0.00 | 0.12 | 0.00 | 97 | 1020.5 |
| 20260831125854 | 72 | 211 | 0.0 | 0.0 | 0.00 | 0.12 | 0.00 | 97 | 1019.9 |
| 20260831125525 | 71 | 0 | 0.0 | 0.0 | 0.00 | 0.12 | 0.00 | 97 | 1020.4 |
| 20260831125403 | 72 | 222 | 0.0 | 0.0 | 0.00 | 0.12 | 0.00 | 98 | 1019.9 |
| 20260831125026 | 71 | 0 | 0.0 | 0.0 | 0.00 | 0.12 | 0.00 | 97 | 1020.3 |
| 20260831124835 | 72 | 222 | 0.0 | 0.0 | 0.00 | 0.12 | 0.00 | 97 | 1019.9 |
| 20260831124543 | 71 | 0 | 0.0 | 0.0 | 0.00 | 0.12 | 0.00 | 97 | 1020.4 |
| 20260831124335 | 71 | 222 | 0.0 | 0.0 | 0.00 | 0.12 | 0.00 | 97 | 1019.9 |
| 20260831124029 | 71 | 0 | 0.0 | 0.0 | 0.00 | 0.12 | 0.00 | 97 | 1020.5 |
| 20260831123905 | 71 | 222 | 0.0 | 0.0 | 0.00 | 0.12 | 0.00 | 97 | 1019.9 |
| 20260831123528 | 71 | 0 | 0.0 | 0.0 | 0.00 | 0.12 | 0.00 | 97 | 1020.3 |
| 20260831123343 | 71 | 222 | 0.0 | 0.0 | 0.00 | 0.12 | 0.00 | 97 | 1019.8 |
| 20260831123044 | 70 | 0 | 0.0 | 0.0 | 0.00 | 0.12 | 0.00 | 97 | 1020.3 |
| 20260831122855 | 71 | 222 | 0.0 | 0.0 | 0.00 | 0.12 | 0.00 | 97 | 1019.8 |
| 20260831122527 | 70 | 0 | 0.0 | 0.0 | 0.00 | 0.12 | 0.00 | 97 | 1020.3 |
| 20260831122348 | 71 | 222 | 0.0 | 0.0 | 0.00 | 0.12 | 0.00 | 97 | 1019.8 |
| 20260831122025 | 70 | 0 | 0.0 | 0.0 | 0.00 | 0.12 | 0.00 | 97 | 1020.3 |
| 20260831121903 | 71 | 222 | 0.0 | 0.0 | 0.00 | 0.12 | 0.00 | 97 | 1019.7 |
| 20260831121549 | 70 | 0 | 0.0 | 0.0 | 0.00 | 0.12 | 0.00 | 97 | 1020.3 |
| 20260831121336 | 70 | 222 | 0.0 | 0.0 | 0.00 | 0.12 | 0.00 | 97 | 1019.7 |
| 20260831121027 | 70 | 0 | 0.0 | 0.0 | 0.00 | 0.12 | 0.00 | 97 | 1020.1 |
| 20260831120851 | 70 | 222 | 0.0 | 0.0 | 0.00 | 0.12 | 0.00 | 97 | 1019.6 |
| 20260831120527 | 70 | 0 | 0.0 | 0.0 | 0.00 | 0.12 | 0.00 | 97 | 1020.0 |
| 20260831120346 | 70 | 0.0 | 0.0 | 0.00 | 0.12 | 0.00 | 97 | 1019.6 | |
| 20260831120051 | 69 | 0 | 0.0 | 0.0 | 0.00 | 0.12 | 0.00 | 97 | 1020.1 |
| 20260831115834 | 70 | 0.0 | 0.0 | 0.00 | 0.12 | 0.00 | 97 | 1019.5 | |
| 20260831115525 | 69 | 0 | 0.0 | 0.0 | 0.00 | 0.12 | 0.00 | 97 | 1020.0 |
| 20260831115333 | 70 | 0.0 | 0.0 | 0.00 | 0.12 | 0.00 | 97 | 1019.5 | |
| 20260831115028 | 69 | 0 | 0.0 | 0.0 | 0.00 | 0.12 | 0.00 | 97 | 1020.0 |
| 20260831114855 | 69 | 0.0 | 0.0 | 0.00 | 0.12 | 0.00 | 97 | 1019.6 | |
| 20260831114546 | 69 | 0 | 0.0 | 0.0 | 0.00 | 0.12 | 0.00 | 97 | 1020.1 |
| 20260831114335 | 69 | 0.0 | 0.0 | 0.00 | 0.12 | 0.00 | 97 | 1019.6 | |
| 20260831114025 | 69 | 0 | 0.0 | 0.0 | 0.00 | 0.12 | 0.00 | 96 | 1020.1 |
| 20260831113834 | 69 | 0.0 | 0.0 | 0.00 | 0.12 | 0.00 | 97 | 1019.7 | |
| 20260831113528 | 69 | 0 | 0.0 | 0.0 | 0.00 | 0.12 | 0.00 | 97 | 1020.1 |
| 20260831113336 | 69 | 0.0 | 0.0 | 0.00 | 0.12 | 0.00 | 97 | 1019.6 | |
| 20260831113044 | 69 | 0.0 | 0.0 | 0.00 | 0.12 | 0.00 | 97 | 1019.8 | |
| 20260831112835 | 69 | 0.0 | 0.0 | 0.00 | 0.12 | 0.00 | 97 | 1019.4 | |
| 20260831112526 | 68 | 0.0 | 0.0 | 0.00 | 0.12 | 0.00 | 97 | 1019.8 | |
| 20260831112333 | 69 | 0.0 | 0.0 | 0.00 | 0.12 | 0.00 | 97 | 1019.4 | |
| 20260831112025 | 68 | 0.0 | 0.0 | 0.00 | 0.12 | 0.00 | 97 | 1019.8 | |
| 20260831111835 | 69 | 0.0 | 0.0 | 0.00 | 0.12 | 0.00 | 97 | 1019.3 | |
| 20260831111550 | 68 | 0.0 | 0.0 | 0.00 | 0.12 | 0.00 | 96 | 1019.6 | |
| 20260831111336 | 69 | 0.0 | 0.0 | 0.00 | 0.12 | 0.00 | 97 | 1019.2 | |
| 20260831111029 | 68 | 0.0 | 0.0 | 0.00 | 0.12 | 0.00 | 96 | 1019.5 | |
| 20260831110835 | 68 | 0.0 | 0.0 | 0.00 | 0.12 | 0.00 | 97 | 1019.1 | |
| 20260831110529 | 68 | 0.0 | 0.0 | 0.00 | 0.12 | 0.00 | 96 | 1019.4 | |
| 20260831110356 | 68 | 0.0 | 0.0 | 0.00 | 0.12 | 0.00 | 97 | 1019.1 | |
| 20260831110045 | 68 | 0.0 | 0.0 | 0.00 | 0.12 | 0.00 | 96 | 1019.4 | |
| 20260831105839 | 68 | 0.0 | 0.0 | 0.00 | 0.12 | 0.00 | 97 | 1019.2 | |
| 20260831105525 | 68 | 0.0 | 0.0 | 0.00 | 0.12 | 0.00 | 96 | 1019.6 | |
| 20260831105400 | 68 | 0.0 | 0.0 | 0.00 | 0.12 | 0.00 | 97 | 1019.1 | |
| 20260831105025 | 68 | 0.0 | 0.0 | 0.00 | 0.12 | 0.00 | 96 | 1019.4 | |
| 20260831104834 | 68 | 0.0 | 0.0 | 0.00 | 0.12 | 0.00 | 97 | 1019.0 | |
| 20260831104544 | 68 | 0.0 | 0.0 | 0.00 | 0.12 | 0.00 | 96 | 1019.3 | |
| 20260831104413 | 68 | 0.0 | 0.0 | 0.00 | 0.12 | 0.00 | 97 | 1018.9 | |
| 20260831104026 | 68 | 0.0 | 0.0 | 0.00 | 0.12 | 0.00 | 96 | 1019.2 | |
| 20260831103848 | 68 | 0.0 | 0.0 | 0.00 | 0.12 | 0.00 | 97 | 1018.9 | |
| 20260831103524 | 68 | 0.0 | 0.0 | 0.00 | 0.12 | 0.00 | 96 | 1019.1 | |
| 20260831103343 | 68 | 0.0 | 0.0 | 0.00 | 0.12 | 0.00 | 97 | 1018.8 | |
| 20260831103045 | 68 | 0.0 | 0.0 | 0.00 | 0.12 | 0.00 | 96 | 1018.9 | |
| 20260831102856 | 68 | 0.0 | 0.0 | 0.00 | 0.12 | 0.00 | 97 | 1018.7 | |
| 20260831102524 | 68 | 0.0 | 0.0 | 0.00 | 0.12 | 0.00 | 96 | 1019.0 | |
| 20260831102337 | 68 | 0.0 | 0.0 | 0.00 | 0.12 | 0.00 | 97 | 1018.8 | |
| 20260831102028 | 68 | 0.0 | 0.0 | 0.00 | 0.12 | 0.00 | 96 | 1018.9 | |
| 20260831101837 | 68 | 0.0 | 0.0 | 0.00 | 0.12 | 0.00 | 97 | 1018.7 | |
| 20260831101612 | 68 | 0.0 | 0.0 | 0.00 | 0.12 | 0.00 | 96 | 1019.0 | |
| 20260831101436 | 68 | 0.0 | 0.0 | 0.00 | 0.12 | 0.00 | 97 | 1018.8 | |
| 20260831101030 | 68 | 0.0 | 0.0 | 0.00 | 0.12 | 0.00 | 96 | 1019.0 | |
| 20260831100833 | 68 | 0.0 | 0.0 | 0.00 | 0.12 | 0.00 | 97 | 1018.8 | |
| 20260831100526 | 68 | 0.0 | 0.0 | 0.00 | 0.12 | 0.00 | 96 | 1018.9 | |
| 20260831100334 | 68 | 0.0 | 0.0 | 0.00 | 0.12 | 0.00 | 97 | 1018.7 | |
| 20260831100109 | 68 | 0.0 | 0.0 | 0.00 | 0.12 | 0.00 | 96 | 1018.8 | |
| 20260831095828 | 68 | 0.0 | 0.0 | 0.00 | 0.12 | 0.00 | 97 | 1018.6 | |
| 20260831095525 | 68 | 0.0 | 0.0 | 0.00 | 0.12 | 0.00 | 96 | 1018.8 | |
| 20260831095409 | 68 | 0.0 | 0.0 | 0.00 | 0.12 | 0.00 | 97 | 1018.6 | |
| 20260831095028 | 68 | 0.0 | 0.0 | 0.00 | 0.12 | 0.00 | 96 | 1018.9 | |
| 20260831094846 | 68 | 0.0 | 0.0 | 0.00 | 0.12 | 0.00 | 97 | 1018.6 | |
| 20260831094544 | 68 | 0.0 | 0.0 | 0.00 | 0.12 | 0.00 | 96 | 1018.8 | |
| 20260831094341 | 68 | 0.0 | 0.0 | 0.00 | 0.12 | 0.00 | 97 | 1018.6 | |
| 20260831094027 | 68 | 0.0 | 0.0 | 0.00 | 0.12 | 0.00 | 96 | 1018.8 | |
| 20260831093901 | 68 | 0.0 | 0.0 | 0.00 | 0.12 | 0.00 | 97 | 1018.6 | |
| 20260831093525 | 68 | 0.0 | 0.0 | 0.00 | 0.12 | 0.00 | 96 | 1018.8 | |
| 20260831093334 | 68 | 0.0 | 0.0 | 0.00 | 0.12 | 0.00 | 97 | 1018.5 | |
| 20260831093054 | 68 | 0.0 | 0.0 | 0.00 | 0.12 | 0.00 | 96 | 1018.8 | |
| 20260831092837 | 68 | 0.0 | 0.0 | 0.00 | 0.12 | 0.00 | 97 | 1018.5 | |
| 20260831092524 | 68 | 0.0 | 0.0 | 0.00 | 0.12 | 0.00 | 96 | 1018.8 | |
| 20260831092352 | 68 | 0.0 | 0.0 | 0.00 | 0.12 | 0.00 | 97 | 1018.4 | |
| 20260831092025 | 68 | 0.0 | 0.0 | 0.00 | 0.12 | 0.00 | 96 | 1018.7 | |
| 20260831091848 | 68 | 0.0 | 0.0 | 0.00 | 0.12 | 0.00 | 96 | 1018.4 | |
| 20260831091549 | 68 | 0.0 | 0.0 | 0.00 | 0.12 | 0.00 | 96 | 1018.7 | |
| 20260831091403 | 68 | 0.0 | 0.0 | 0.00 | 0.12 | 0.00 | 96 | 1018.4 | |
| 20260831091031 | 68 | 0.0 | 0.0 | 0.00 | 0.12 | 0.00 | 96 | 1018.7 | |
| 20260831090838 | 68 | 0.0 | 0.0 | 0.00 | 0.12 | 0.00 | 96 | 1018.4 | |
| 20260831090527 | 68 | 0.0 | 0.0 | 0.00 | 0.12 | 0.00 | 96 | 1018.8 | |
| 20260831090352 | 68 | 0.0 | 0.0 | 0.00 | 0.12 | 0.00 | 96 | 1018.5 | |
| 20260831090103 | 68 | 0.0 | 0.0 | 0.00 | 0.12 | 0.00 | 96 | 1018.9 | |
| 20260831085843 | 68 | 0.0 | 0.0 | 0.00 | 0.12 | 0.00 | 96 | 1018.6 | |
| 20260831085525 | 68 | 0.0 | 0.0 | 0.00 | 0.12 | 0.00 | 96 | 1018.9 | |
| 20260831085343 | 68 | 0.0 | 0.0 | 0.00 | 0.12 | 0.00 | 96 | 1018.5 | |
| 20260831085027 | 68 | 0.0 | 0.0 | 0.00 | 0.12 | 0.00 | 96 | 1018.8 | |
| 20260831084845 | 68 | 0.0 | 0.0 | 0.00 | 0.12 | 0.00 | 96 | 1018.5 | |
| 20260831084544 | 68 | 0.0 | 0.0 | 0.00 | 0.12 | 0.00 | 96 | 1018.9 | |
| 20260831084344 | 69 | 0.0 | 0.0 | 0.00 | 0.12 | 0.00 | 96 | 1018.5 | |
| 20260831084031 | 68 | 0.0 | 0.0 | 0.00 | 0.12 | 0.00 | 96 | 1018.9 | |
| 20260831083903 | 68 | 0.0 | 0.0 | 0.00 | 0.12 | 0.00 | 96 | 1018.5 | |
| 20260831083525 | 68 | 0.0 | 0.0 | 0.00 | 0.12 | 0.00 | 96 | 1018.9 | |
| 20260831083342 | 69 | 0.0 | 0.0 | 0.00 | 0.12 | 0.00 | 96 | 1018.4 | |
| 20260831083052 | 68 | 0.0 | 0.0 | 0.00 | 0.12 | 0.00 | 96 | 1018.8 | |
| 20260831082841 | 68 | 0.0 | 0.0 | 0.00 | 0.12 | 0.00 | 96 | 1018.3 | |
| 20260831082524 | 68 | 0.0 | 0.0 | 0.00 | 0.12 | 0.00 | 96 | 1018.8 | |
| 20260831082334 | 68 | 0.0 | 0.0 | 0.00 | 0.12 | 0.00 | 96 | 1018.3 | |
| 20260831082025 | 68 | 0.0 | 0.0 | 0.00 | 0.12 | 0.00 | 96 | 1018.7 | |
| 20260831081853 | 68 | 0.0 | 0.0 | 0.00 | 0.12 | 0.00 | 96 | 1018.2 | |
| 20260831081551 | 68 | 0.0 | 0.0 | 0.00 | 0.12 | 0.00 | 96 | 1018.7 | |
| 20260831081332 | 68 | 0.0 | 0.0 | 0.00 | 0.12 | 0.00 | 96 | 1018.2 | |
| 20260831081024 | 68 | 0.0 | 0.0 | 0.00 | 0.12 | 0.00 | 96 | 1018.7 | |
| 20260831080830 | 68 | 0.0 | 0.0 | 0.00 | 0.12 | 0.00 | 96 | 1018.3 | |
| 20260831080524 | 68 | 0.0 | 0.0 | 0.00 | 0.12 | 0.00 | 96 | 1018.9 | |
| 20260831080331 | 68 | 0.0 | 0.0 | 0.00 | 0.12 | 0.00 | 96 | 1018.4 | |
| 20260831080047 | 68 | 0.0 | 0.0 | 0.00 | 0.12 | 0.00 | 96 | 1018.9 | |
| 20260831075828 | 69 | 0.0 | 0.0 | 0.00 | 0.12 | 0.00 | 96 | 1018.4 | |
| 20260831075524 | 68 | 0.0 | 0.0 | 0.00 | 0.12 | 0.00 | 96 | 1019.0 | |
| 20260831075349 | 69 | 0.0 | 0.0 | 0.00 | 0.12 | 0.00 | 96 | 1018.4 | |
| 20260831075024 | 68 | 0.0 | 0.0 | 0.00 | 0.12 | 0.00 | 96 | 1019.0 | |
| 20260831074827 | 68 | 0.0 | 0.0 | 0.00 | 0.12 | 0.00 | 96 | 1018.5 | |
| 20260831074544 | 68 | 0.0 | 0.0 | 0.00 | 0.12 | 0.00 | 96 | 1019.0 | |
| 20260831074347 | 68 | 0.0 | 0.0 | 0.00 | 0.12 | 0.00 | 96 | 1018.5 | |
| 20260831074027 | 68 | 0.0 | 0.0 | 0.00 | 0.12 | 0.00 | 96 | 1019.0 | |
| 20260831073846 | 68 | 0.0 | 0.0 | 0.00 | 0.12 | 0.00 | 96 | 1018.4 | |
| 20260831073531 | 68 | 0.0 | 0.0 | 0.00 | 0.12 | 0.00 | 96 | 1018.9 | |
| 20260831073347 | 68 | 0.0 | 0.0 | 0.00 | 0.12 | 0.00 | 96 | 1018.4 | |
| 20260831073046 | 68 | 0.0 | 0.0 | 0.00 | 0.12 | 0.00 | 96 | 1018.9 | |
| 20260831072841 | 68 | 0.0 | 0.0 | 0.00 | 0.12 | 0.00 | 96 | 1018.3 | |
| 20260831072526 | 68 | 0.0 | 0.0 | 0.00 | 0.12 | 0.00 | 96 | 1018.9 | |
| 20260831072341 | 68 | 0.0 | 0.0 | 0.00 | 0.12 | 0.00 | 96 | 1018.3 | |
| 20260831072028 | 68 | 0.0 | 0.0 | 0.00 | 0.12 | 0.00 | 96 | 1018.9 | |
| 20260831071833 | 68 | 0.0 | 0.0 | 0.00 | 0.12 | 0.00 | 96 | 1018.3 | |
| 20260831071545 | 68 | 0.0 | 0.0 | 0.00 | 0.12 | 0.00 | 96 | 1018.9 | |
| 20260831071415 | 68 | 0.0 | 0.0 | 0.00 | 0.12 | 0.00 | 96 | 1018.3 | |
| 20260831071027 | 68 | 0.0 | 0.0 | 0.00 | 0.12 | 0.00 | 96 | 1018.9 | |
| 20260831070847 | 68 | 0.0 | 0.0 | 0.00 | 0.12 | 0.00 | 96 | 1018.3 | |
| 20260831070524 | 68 | 0.0 | 0.0 | 0.00 | 0.12 | 0.00 | 95 | 1018.8 | |
| 20260831070404 | 68 | 0.0 | 0.0 | 0.00 | 0.12 | 0.00 | 96 | 1018.3 | |
| 20260831070046 | 68 | 0.0 | 0.0 | 0.00 | 0.12 | 0.00 | 95 | 1018.9 | |
| 20260831065836 | 68 | 0.0 | 0.0 | 0.00 | 0.12 | 0.00 | 96 | 1018.3 | |
| 20260831065525 | 68 | 0.0 | 0.0 | 0.00 | 0.12 | 0.00 | 95 | 1018.9 | |
| 20260831065352 | 68 | 0.0 | 0.0 | 0.00 | 0.12 | 0.00 | 96 | 1018.3 | |
| 20260831065027 | 68 | 0.0 | 0.0 | 0.00 | 0.12 | 0.00 | 95 | 1018.8 | |
| 20260831064847 | 68 | 0.0 | 0.0 | 0.00 | 0.12 | 0.00 | 96 | 1018.3 | |
| 20260831064556 | 68 | 0.0 | 0.0 | 0.00 | 0.12 | 0.00 | 95 | 1018.9 | |
| 20260831064401 | 68 | 0.0 | 0.0 | 0.00 | 0.12 | 0.00 | 96 | 1018.3 | |
| 20260831064030 | 68 | 0.0 | 0.0 | 0.00 | 0.12 | 0.00 | 95 | 1018.9 | |
| 20260831063842 | 68 | 0.0 | 0.0 | 0.00 | 0.12 | 0.00 | 96 | 1018.4 | |
| 20260831063526 | 68 | 0.0 | 0.0 | 0.00 | 0.12 | 0.00 | 95 | 1019.0 | |
| 20260831063334 | 68 | 0.0 | 0.0 | 0.00 | 0.12 | 0.00 | 96 | 1018.4 | |
| 20260831063044 | 68 | 0.0 | 0.0 | 0.00 | 0.12 | 0.00 | 95 | 1018.9 | |
| 20260831062849 | 69 | 0.0 | 0.0 | 0.00 | 0.12 | 0.00 | 96 | 1018.4 | |
| 20260831062531 | 68 | 0.0 | 0.0 | 0.00 | 0.12 | 0.00 | 95 | 1019.0 | |
| 20260831062342 | 69 | 0.0 | 0.0 | 0.00 | 0.12 | 0.00 | 96 | 1018.5 | |
| 20260831062027 | 68 | 0.0 | 0.0 | 0.00 | 0.12 | 0.00 | 95 | 1019.0 | |
| 20260831061858 | 69 | 0.0 | 0.0 | 0.00 | 0.12 | 0.00 | 96 | 1018.6 | |
| 20260831061557 | 68 | 0.0 | 0.0 | 0.00 | 0.12 | 0.00 | 95 | 1019.1 | |
| 20260831061350 | 69 | 0.0 | 0.0 | 0.00 | 0.12 | 0.00 | 96 | 1018.5 | |
| 20260831061028 | 68 | 0.0 | 0.0 | 0.00 | 0.12 | 0.00 | 95 | 1019.1 | |
| 20260831060901 | 69 | 0.0 | 0.0 | 0.00 | 0.12 | 0.00 | 96 | 1018.6 | |
| 20260831060528 | 68 | 0.0 | 0.0 | 0.00 | 0.12 | 0.00 | 95 | 1019.2 | |
| 20260831060340 | 69 | 0.0 | 0.0 | 0.00 | 0.12 | 0.00 | 96 | 1018.6 | |
| 20260831060052 | 68 | 0.0 | 0.0 | 0.00 | 0.12 | 0.00 | 95 | 1019.2 | |
| 20260831055849 | 69 | 0.0 | 0.0 | 0.00 | 0.12 | 0.00 | 96 | 1018.7 | |
| 20260831055524 | 68 | 0.0 | 0.0 | 0.00 | 0.12 | 0.00 | 95 | 1019.2 | |
| 20260831055342 | 69 | 0.0 | 0.0 | 0.00 | 0.12 | 0.00 | 96 | 1018.7 | |
| 20260831055024 | 68 | 0.0 | 0.0 | 0.00 | 0.12 | 0.00 | 95 | 1019.2 | |
| 20260831054902 | 69 | 0.0 | 0.0 | 0.00 | 0.12 | 0.00 | 96 | 1018.8 | |
| 20260831054551 | 68 | 0.0 | 0.0 | 0.00 | 0.12 | 0.00 | 95 | 1019.3 | |
| 20260831054338 | 69 | 0.0 | 0.0 | 0.00 | 0.12 | 0.00 | 96 | 1018.8 | |
| 20260831054027 | 68 | 0.0 | 0.0 | 0.00 | 0.12 | 0.00 | 95 | 1019.3 | |
| 20260831053838 | 69 | 0.0 | 0.0 | 0.00 | 0.12 | 0.00 | 96 | 1018.9 | |
| 20260831053525 | 69 | 0.0 | 0.0 | 0.00 | 0.12 | 0.00 | 95 | 1019.4 | |
| 20260831053340 | 69 | 0.0 | 0.0 | 0.00 | 0.12 | 0.00 | 96 | 1018.9 | |
| 20260831053046 | 69 | 0.0 | 0.0 | 0.00 | 0.12 | 0.00 | 95 | 1019.3 | |
| 20260831052840 | 69 | 0.0 | 0.0 | 0.00 | 0.12 | 0.00 | 96 | 1018.9 | |
| 20260831052529 | 69 | 0.0 | 0.0 | 0.00 | 0.12 | 0.00 | 95 | 1019.3 | |
| 20260831052341 | 69 | 0.0 | 0.0 | 0.00 | 0.12 | 0.00 | 96 | 1018.9 | |
| 20260831052025 | 69 | 0.0 | 0.0 | 0.00 | 0.12 | 0.00 | 95 | 1019.3 | |
| 20260831051845 | 69 | 0.0 | 0.0 | 0.00 | 0.12 | 0.00 | 95 | 1018.8 | |
| 20260831051604 | 69 | 0.0 | 0.0 | 0.00 | 0.12 | 0.00 | 95 | 1019.4 | |
| 20260831051345 | 69 | 0.0 | 0.0 | 0.00 | 0.12 | 0.00 | 96 | 1018.9 | |
| 20260831051028 | 69 | 0.0 | 0.0 | 0.00 | 0.12 | 0.00 | 95 | 1019.2 | |
| 20260831050846 | 69 | 0.0 | 0.0 | 0.00 | 0.12 | 0.00 | 96 | 1018.8 | |
| 20260831050527 | 69 | 0.0 | 0.0 | 0.00 | 0.12 | 0.00 | 95 | 1019.1 | |
| 20260831050345 | 69 | 0.0 | 0.0 | 0.00 | 0.12 | 0.00 | 96 | 1018.8 | |
| 20260831050048 | 69 | 0.0 | 0.0 | 0.00 | 0.12 | 0.00 | 95 | 1019.2 | |
| 20260831045845 | 70 | 0.0 | 0.0 | 0.00 | 0.12 | 0.00 | 96 | 1018.8 | |
| 20260831045529 | 69 | 0.0 | 0.0 | 0.00 | 0.12 | 0.00 | 95 | 1019.2 | |
| 20260831045343 | 70 | 0.0 | 0.0 | 0.00 | 0.12 | 0.00 | 96 | 1018.8 | |
| 20260831045024 | 69 | 0.0 | 0.0 | 0.00 | 0.12 | 0.00 | 95 | 1019.1 | |
| 20260831044838 | 70 | 0.0 | 0.0 | 0.00 | 0.12 | 0.00 | 96 | 1018.9 | |
| 20260831044548 | 69 | 0.0 | 0.0 | 0.00 | 0.12 | 0.00 | 95 | 1019.3 | |
| 20260831044333 | 70 | 0.0 | 0.0 | 0.00 | 0.12 | 0.00 | 96 | 1018.9 | |
| 20260831044024 | 69 | 0.0 | 0.0 | 0.00 | 0.12 | 0.00 | 95 | 1019.3 | |
| 20260831043849 | 70 | 0.0 | 0.0 | 0.00 | 0.12 | 0.00 | 96 | 1019.0 | |
| 20260831043524 | 69 | 0.0 | 0.0 | 0.00 | 0.12 | 0.00 | 95 | 1019.3 | |
| 20260831043345 | 70 | 0.0 | 0.0 | 0.00 | 0.12 | 0.00 | 96 | 1019.0 | |
| 20260831043045 | 69 | 0.0 | 0.0 | 0.00 | 0.12 | 0.00 | 95 | 1019.3 | |
| 20260831042842 | 70 | 0.0 | 0.0 | 0.00 | 0.12 | 0.00 | 96 | 1018.9 | |
| 20260831042524 | 69 | 0.0 | 0.0 | 0.00 | 0.12 | 0.00 | 95 | 1019.2 | |
| 20260831042403 | 70 | 0.0 | 0.0 | 0.00 | 0.12 | 0.00 | 96 | 1018.8 | |
| 20260831042024 | 69 | 0.0 | 0.0 | 0.00 | 0.12 | 0.00 | 95 | 1019.2 | |
| 20260831041856 | 70 | 0.0 | 0.0 | 0.00 | 0.12 | 0.00 | 96 | 1018.9 | |
| 20260831041551 | 69 | 0.0 | 0.0 | 0.00 | 0.12 | 0.00 | 95 | 1019.2 | |
| 20260831041350 | 70 | 0.0 | 0.0 | 0.00 | 0.12 | 0.00 | 95 | 1019.1 | |
| 20260831041025 | 69 | 0.0 | 0.0 | 0.00 | 0.12 | 0.00 | 95 | 1019.4 | |
| 20260831040842 | 70 | 0.0 | 0.0 | 0.00 | 0.12 | 0.00 | 95 | 1019.1 | |
| 20260831040526 | 69 | 0.0 | 0.0 | 0.00 | 0.12 | 0.00 | 95 | 1019.5 | |
| 20260831040339 | 70 | 0.0 | 0.0 | 0.00 | 0.12 | 0.00 | 95 | 1019.2 | |
| 20260831040047 | 69 | 0.0 | 0.0 | 0.00 | 0.12 | 0.00 | 95 | 1019.5 | |
| 20260831035833 | 70 | 0.0 | 0.0 | 0.00 | 0.12 | 0.12 | 96 | 1019.2 | |
| 20260831035525 | 69 | 0.0 | 0.0 | 0.00 | 0.12 | 0.12 | 95 | 1019.5 | |
| 20260831035331 | 70 | 0.0 | 0.0 | 0.00 | 0.12 | 0.12 | 96 | 1019.2 | |
| 20260831035027 | 69 | 0.0 | 0.0 | 0.00 | 0.12 | 0.12 | 95 | 1019.4 | |
| 20260831034830 | 70 | 0.0 | 0.0 | 0.00 | 0.12 | 0.12 | 96 | 1019.1 | |
| 20260831034546 | 70 | 0.0 | 0.0 | 0.00 | 0.12 | 0.12 | 95 | 1019.4 | |
| 20260831034347 | 70 | 0.0 | 0.0 | 0.00 | 0.12 | 0.12 | 96 | 1019.1 | |
| 20260831034026 | 70 | 0.0 | 0.0 | 0.00 | 0.12 | 0.12 | 95 | 1019.4 | |
| 20260831033826 | 70 | 0.0 | 0.0 | 0.00 | 0.12 | 0.12 | 96 | 1019.1 | |
| 20260831033524 | 70 | 0.0 | 0.0 | 0.00 | 0.12 | 0.12 | 95 | 1019.5 | |
| 20260831033346 | 70 | 0.0 | 0.0 | 0.00 | 0.12 | 0.12 | 95 | 1019.2 | |
| 20260831033052 | 70 | 0.0 | 0.0 | 0.00 | 0.12 | 0.12 | 95 | 1019.5 | |
| 20260831032846 | 70 | 0.0 | 0.0 | 0.00 | 0.12 | 0.12 | 95 | 1019.1 | |
| 20260831032527 | 70 | 0.0 | 0.0 | 0.00 | 0.12 | 0.12 | 95 | 1019.4 | |
| 20260831032346 | 70 | 0.0 | 0.0 | 0.00 | 0.12 | 0.12 | 95 | 1019.0 | |
| 20260831032025 | 70 | 0.0 | 0.0 | 0.00 | 0.12 | 0.12 | 95 | 1019.4 | |
| 20260831031846 | 70 | 0.0 | 0.0 | 0.00 | 0.12 | 0.12 | 95 | 1019.0 | |
| 20260831031547 | 70 | 0.0 | 0.0 | 0.00 | 0.12 | 0.12 | 95 | 1019.4 | |
| 20260831031338 | 70 | 0.0 | 0.0 | 0.00 | 0.12 | 0.12 | 95 | 1019.0 | |
| 20260831031025 | 70 | 0.0 | 0.0 | 0.00 | 0.12 | 0.12 | 95 | 1019.6 | |
| 20260831030837 | 70 | 0.0 | 0.0 | 0.00 | 0.12 | 0.12 | 95 | 1019.1 | |
| 20260831030525 | 70 | 0.0 | 0.0 | 0.00 | 0.12 | 0.12 | 95 | 1019.6 | |
| 20260831030354 | 70 | 0.0 | 0.0 | 0.00 | 0.12 | 0.12 | 95 | 1019.2 | |
| 20260831030104 | 70 | 0.0 | 0.0 | 0.00 | 0.12 | 0.12 | 95 | 1019.6 | |
| 20260831025832 | 70 | 0.0 | 0.0 | 0.00 | 0.12 | 0.12 | 95 | 1019.3 | |
| 20260831025525 | 70 | 0.0 | 0.0 | 0.00 | 0.12 | 0.12 | 95 | 1019.7 | |
| 20260831025331 | 70 | 0.0 | 0.0 | 0.00 | 0.12 | 0.12 | 95 | 1019.2 | |
| 20260831025024 | 70 | 0.0 | 0.0 | 0.00 | 0.12 | 0.12 | 95 | 1019.7 | |
| 20260831024851 | 70 | 0.0 | 0.0 | 0.00 | 0.12 | 0.12 | 95 | 1019.4 | |
| 20260831024609 | 70 | 0.0 | 0.0 | 0.00 | 0.12 | 0.12 | 95 | 1019.8 | |
| 20260831024328 | 70 | 0.0 | 0.0 | 0.00 | 0.12 | 0.12 | 95 | 1019.4 | |
| 20260831024025 | 70 | 0.0 | 0.0 | 0.00 | 0.12 | 0.12 | 95 | 1019.8 | |
| 20260831023849 | 70 | 0.0 | 0.0 | 0.00 | 0.12 | 0.12 | 95 | 1019.4 | |
| 20260831023523 | 70 | 0.0 | 0.0 | 0.00 | 0.12 | 0.12 | 94 | 1019.9 | |
| 20260831023348 | 70 | 0.0 | 0.0 | 0.00 | 0.12 | 0.12 | 95 | 1019.4 | |
| 20260831023052 | 70 | 0.0 | 0.0 | 0.00 | 0.12 | 0.12 | 94 | 1019.8 | |
| 20260831022846 | 70 | 0.0 | 0.0 | 0.00 | 0.12 | 0.12 | 95 | 1019.5 | |
| 20260831022525 | 70 | 0.0 | 0.0 | 0.00 | 0.12 | 0.12 | 94 | 1020.0 | |
| 20260831022345 | 70 | 0.0 | 0.0 | 0.00 | 0.12 | 0.12 | 95 | 1019.5 | |
| 20260831022026 | 70 | 0.0 | 0.0 | 0.00 | 0.12 | 0.12 | 94 | 1019.9 | |
| 20260831021841 | 70 | 0.0 | 0.0 | 0.00 | 0.12 | 0.12 | 95 | 1019.5 | |
| 20260831021544 | 70 | 0.0 | 0.0 | 0.00 | 0.12 | 0.12 | 94 | 1020.0 | |
| 20260831021352 | 70 | 0.0 | 0.0 | 0.00 | 0.12 | 0.12 | 94 | 1019.5 | |
| 20260831021031 | 70 | 0.0 | 0.0 | 0.00 | 0.12 | 0.12 | 94 | 1019.9 | |
| 20260831020826 | 70 | 0.0 | 0.0 | 0.00 | 0.12 | 0.12 | 94 | 1019.5 | |
| 20260831020526 | 70 | 0.0 | 0.0 | 0.00 | 0.12 | 0.12 | 94 | 1019.9 | |
| 20260831020406 | 70 | 0.0 | 0.0 | 0.00 | 0.12 | 0.12 | 94 | 1019.4 | |
| 20260831020046 | 70 | 0.0 | 0.0 | 0.00 | 0.12 | 0.12 | 94 | 1019.9 | |
| 20260831015826 | 70 | 0.0 | 0.0 | 0.00 | 0.12 | 0.12 | 94 | 1019.4 | |
| 20260831015526 | 70 | 0.0 | 0.0 | 0.00 | 0.12 | 0.12 | 94 | 1019.8 | |
| 20260831015348 | 71 | 0.0 | 0.0 | 0.00 | 0.12 | 0.12 | 94 | 1019.5 | |
| 20260831015024 | 70 | 0.0 | 0.0 | 0.00 | 0.12 | 0.12 | 94 | 1019.9 | |
| 20260831014903 | 71 | 0.0 | 0.0 | 0.00 | 0.12 | 0.12 | 94 | 1019.5 | |
| 20260831014544 | 70 | 0.0 | 0.0 | 0.00 | 0.12 | 0.12 | 94 | 1019.8 | |
| 20260831014338 | 71 | 0.0 | 0.0 | 0.00 | 0.12 | 0.12 | 94 | 1019.4 | |
| 20260831014025 | 70 | 0.0 | 0.0 | 0.00 | 0.12 | 0.12 | 94 | 1019.9 | |
| 20260831013831 | 71 | 0.0 | 0.0 | 0.00 | 0.12 | 0.12 | 94 | 1019.5 | |
| 20260831013526 | 70 | 0.0 | 0.0 | 0.00 | 0.12 | 0.12 | 94 | 1020.0 | |
| 20260831013330 | 71 | 0.0 | 0.0 | 0.00 | 0.12 | 0.12 | 94 | 1019.5 | |
| 20260831013109 | 70 | 0.0 | 0.0 | 0.00 | 0.12 | 0.12 | 94 | 1019.9 | |
| 20260831012832 | 71 | 0.0 | 0.0 | 0.00 | 0.12 | 0.12 | 94 | 1019.4 | |
| 20260831012526 | 70 | 0.0 | 0.0 | 0.00 | 0.12 | 0.12 | 94 | 1020.0 | |
| 20260831012348 | 71 | 0.0 | 0.0 | 0.00 | 0.12 | 0.12 | 94 | 1019.4 | |
| 20260831012025 | 70 | 0.0 | 0.0 | 0.00 | 0.12 | 0.12 | 94 | 1019.9 | |
| 20260831011843 | 71 | 0.0 | 0.0 | 0.01 | 0.12 | 0.12 | 94 | 1019.4 | |
| 20260831011550 | 70 | 0.0 | 0.0 | 0.01 | 0.12 | 0.12 | 93 | 1019.8 | |
| 20260831011338 | 71 | 0.0 | 0.0 | 0.01 | 0.12 | 0.12 | 94 | 1019.3 | |
| 20260831011030 | 70 | 0.0 | 0.0 | 0.01 | 0.12 | 0.12 | 93 | 1019.8 | |
| 20260831010834 | 71 | 0.0 | 0.0 | 0.02 | 0.12 | 0.12 | 94 | 1019.3 | |
| 20260831010528 | 70 | 0.0 | 0.0 | 0.02 | 0.12 | 0.12 | 93 | 1019.9 | |
| 20260831010331 | 71 | 0.0 | 0.0 | 0.03 | 0.12 | 0.12 | 94 | 1019.3 | |
| 20260831010045 | 71 | 0.0 | 0.0 | 0.03 | 0.12 | 0.12 | 93 | 1019.9 | |
| 20260831005830 | 71 | 0.0 | 0.0 | 0.04 | 0.12 | 0.12 | 94 | 1019.3 | |
| 20260831005528 | 71 | 0.0 | 0.0 | 0.04 | 0.12 | 0.12 | 93 | 1019.9 | |
| 20260831005333 | 71 | 0.0 | 0.0 | 0.04 | 0.12 | 0.12 | 94 | 1019.1 | |
| 20260831005025 | 71 | 0.0 | 0.0 | 0.05 | 0.12 | 0.12 | 93 | 1019.7 | |
| 20260831004848 | 71 | 0.0 | 0.0 | 0.06 | 0.12 | 0.12 | 94 | 1019.1 | |
| 20260831004544 | 71 | 0.0 | 0.0 | 0.06 | 0.12 | 0.12 | 93 | 1019.7 | |
| 20260831004341 | 71 | 0.0 | 0.0 | 0.07 | 0.12 | 0.12 | 93 | 1018.9 | |
| 20260831004031 | 71 | 0.0 | 0.0 | 0.07 | 0.12 | 0.12 | 93 | 1019.7 | |
| 20260831003841 | 71 | 0.0 | 0.0 | 0.07 | 0.12 | 0.12 | 93 | 1018.9 | |
| 20260831003528 | 71 | 0.0 | 0.0 | 0.07 | 0.12 | 0.12 | 92 | 1019.7 | |
| 20260831003335 | 71 | 0.0 | 0.0 | 0.07 | 0.12 | 0.12 | 93 | 1019.1 | |
| 20260831003051 | 71 | 0.0 | 0.0 | 0.08 | 0.12 | 0.12 | 92 | 1019.6 | |
| 20260831002847 | 72 | 0.0 | 0.0 | 0.08 | 0.12 | 0.12 | 93 | 1019.0 | |
| 20260831002527 | 71 | 0.0 | 0.0 | 0.10 | 0.12 | 0.12 | 92 | 1019.6 | |
| 20260831002343 | 72 | 0.0 | 0.0 | 0.10 | 0.12 | 0.12 | 93 | 1019.1 | |
| 20260831002025 | 72 | 0.0 | 0.0 | 0.10 | 0.12 | 0.12 | 93 | 1019.7 | |
| 20260831001838 | 72 | 0.0 | 0.0 | 0.09 | 0.11 | 0.11 | 93 | 1019.2 | |
| 20260831001546 | 72 | 0.0 | 0.0 | 0.09 | 0.11 | 0.11 | 92 | 1019.8 | |
| 20260831001332 | 72 | 0.0 | 0.0 | 0.09 | 0.11 | 0.11 | 93 | 1019.2 | |
| 20260831001028 | 72 | 0.0 | 0.0 | 0.10 | 0.11 | 0.11 | 92 | 1019.6 | |
| 20260831000832 | 73 | 0.0 | 0.0 | 0.10 | 0.10 | 0.10 | 93 | 1018.8 | |
| 20260831000524 | 72 | 0.0 | 0.0 | 0.10 | 0.10 | 0.10 | 92 | 1019.5 | |
| 20260831000333 | 73 | 0.0 | 0.0 | 0.09 | 0.09 | 0.09 | 92 | 1019.1 | |
| 20260831000045 | 73 | 0.0 | 0.0 | 0.08 | 0.08 | 0.08 | 91 | 1019.7 | |
| 20260830235832 | 74 | 0.0 | 0.0 | 0.08 | 0.08 | 0.08 | 92 | 1019.3 | |
| 20260830235524 | 74 | 0.0 | 0.0 | 0.08 | 0.08 | 0.08 | 91 | 1019.8 | |
| 20260830235334 | 74 | 0.0 | 0.0 | 0.07 | 0.07 | 0.07 | 91 | 1019.3 | |
| 20260830235025 | 75 | 0.0 | 0.0 | 0.07 | 0.07 | 0.07 | 90 | 1019.9 | |
| 20260830234837 | 75 | 0.0 | 0.0 | 0.06 | 0.06 | 0.06 | 91 | 1019.4 | |
| 20260830234544 | 76 | 0.0 | 0.0 | 0.06 | 0.06 | 0.06 | 90 | 1019.9 | |
| 20260830234334 | 76 | 0.0 | 0.0 | 0.05 | 0.05 | 0.05 | 90 | 1019.2 | |
| 20260830234024 | 76 | 0.0 | 0.0 | 0.05 | 0.05 | 0.05 | 89 | 1019.8 | |
| 20260830233828 | 77 | 0.0 | 0.0 | 0.05 | 0.05 | 0.05 | 89 | 1019.1 | |
| 20260830233525 | 77 | 0.0 | 0.0 | 0.05 | 0.05 | 0.05 | 89 | 1019.6 | |
| 20260830233334 | 78 | 0.0 | 0.0 | 0.04 | 0.04 | 0.04 | 89 | 1018.9 | |
| 20260830233045 | 78 | 0.0 | 0.0 | 0.04 | 0.04 | 0.04 | 88 | 1019.3 | |
| 20260830232851 | 78 | 0.0 | 0.0 | 0.04 | 0.04 | 0.04 | 89 | 1018.7 | |
| 20260830232529 | 78 | 0.0 | 0.0 | 0.02 | 0.02 | 0.02 | 87 | 1019.2 | |
| 20260830232403 | 79 | 0.0 | 0.0 | 0.02 | 0.02 | 0.02 | 87 | 1018.5 | |
| 20260830232027 | 79 | 0.0 | 0.0 | 0.02 | 0.02 | 0.02 | 86 | 1019.1 | |
| 20260830231835 | 79 | 0.0 | 0.0 | 0.02 | 0.02 | 0.02 | 86 | 1018.5 | |
| 20260830231546 | 79 | 0.0 | 0.0 | 0.02 | 0.02 | 0.02 | 85 | 1019.1 | |
| 20260830231358 | 80 | 0.0 | 0.0 | 0.02 | 0.02 | 0.02 | 85 | 1018.5 | |
| 20260830231024 | 80 | 0.0 | 0.0 | 0.01 | 0.01 | 0.01 | 84 | 1019.1 | |
| 20260830230913 | 80 | 0.0 | 0.0 | 0.00 | 0.00 | 0.00 | 84 | 1018.5 | |
| 20260830230524 | 80 | 0.0 | 0.0 | 0.00 | 0.00 | 0.00 | 82 | 1019.1 | |
| 20260830230348 | 81 | 0.0 | 0.0 | 0.00 | 0.00 | 0.00 | 82 | 1018.4 | |
| 20260830230045 | 81 | 0.0 | 0.0 | 0.00 | 0.00 | 0.00 | 81 | 1018.9 | |
| 20260830225903 | 81 | 0.0 | 0.0 | 0.00 | 0.00 | 0.00 | 80 | 1018.4 | |
| 20260830225525 | 81 | 0.0 | 0.0 | 0.00 | 0.00 | 0.00 | 79 | 1019.0 | |
| 20260830225337 | 82 | 0.0 | 0.0 | 0.00 | 0.00 | 0.00 | 79 | 1018.5 | |
| 20260830225025 | 81 | 0.0 | 0.0 | 0.00 | 0.00 | 0.00 | 77 | 1019.2 | |
| 20260830224852 | 82 | 0.0 | 0.0 | 0.00 | 0.00 | 0.00 | 77 | 1018.6 | |
| 20260830224555 | 82 | 0.0 | 0.0 | 0.00 | 0.00 | 0.00 | 76 | 1019.2 | |
| 20260830224413 | 82 | 0.0 | 0.0 | 0.00 | 0.00 | 0.00 | 76 | 1018.6 | |
| 20260830224026 | 82 | 0.0 | 0.0 | 0.00 | 0.00 | 0.00 | 74 | 1019.2 | |
| 20260830223846 | 83 | 0.0 | 0.0 | 0.00 | 0.00 | 0.00 | 74 | 1018.6 | |
| 20260830223524 | 82 | 0.0 | 0.0 | 0.00 | 0.00 | 0.00 | 74 | 1019.1 | |
| 20260830223342 | 83 | 0.0 | 0.0 | 0.00 | 0.00 | 0.00 | 74 | 1018.5 | |
| 20260830223048 | 83 | 0.0 | 0.0 | 0.00 | 0.00 | 0.00 | 73 | 1019.0 | |
| 20260830222835 | 83 | 150 | 0.0 | 0.0 | 0.00 | 0.00 | 0.00 | 74 | 1018.5 |
| 20260830222523 | 83 | 0.0 | 0.0 | 0.00 | 0.00 | 0.00 | 73 | 1019.1 | |
| 20260830222332 | 84 | 150 | 0.0 | 0.0 | 0.00 | 0.00 | 0.00 | 73 | 1018.4 |
| 20260830222027 | 83 | 0 | 0.0 | 0.0 | 0.00 | 0.00 | 0.00 | 71 | 1018.9 |
| 20260830221830 | 84 | 150 | 0.0 | 0.0 | 0.00 | 0.00 | 0.00 | 70 | 1018.4 |
| 20260830221548 | 83 | 0 | 0.0 | 5.0 | 0.00 | 0.00 | 0.00 | 70 | 1018.9 |
| 20260830221333 | 84 | 123 | 0.0 | 5.0 | 0.00 | 0.00 | 0.00 | 71 | 1018.3 |
| 20260830221024 | 84 | 0 | 0.0 | 5.0 | 0.00 | 0.00 | 0.00 | 70 | 1018.8 |
| 20260830220830 | 84 | 123 | 0.0 | 5.0 | 0.00 | 0.00 | 0.00 | 72 | 1018.2 |
| 20260830220525 | 84 | 208 | 0.0 | 5.0 | 0.00 | 0.00 | 0.00 | 70 | 1018.7 |
| 20260830220351 | 84 | 185 | 1.0 | 5.0 | 0.00 | 0.00 | 0.00 | 70 | 1018.1 |
| 20260830220045 | 84 | 205 | 0.0 | 5.0 | 0.00 | 0.00 | 0.00 | 70 | 1018.6 |
| 20260830215847 | 84 | 175 | 1.0 | 5.0 | 0.00 | 0.00 | 0.00 | 71 | 1018.2 |
| 20260830215526 | 84 | 0 | 0.0 | 5.0 | 0.00 | 0.00 | 0.00 | 71 | 1018.8 |
| 20260830215344 | 84 | 180 | 1.0 | 5.0 | 0.00 | 0.00 | 0.00 | 73 | 1018.2 |
| 20260830215023 | 84 | 0 | 0.0 | 3.0 | 0.00 | 0.00 | 0.00 | 71 | 1018.8 |
| 20260830214847 | 84 | 185 | 0.0 | 3.0 | 0.00 | 0.00 | 0.00 | 70 | 1018.1 |
| 20260830214545 | 84 | 0 | 0.0 | 3.0 | 0.00 | 0.00 | 0.00 | 70 | 1018.7 |
| 20260830214340 | 84 | 183 | 1.0 | 3.0 | 0.00 | 0.00 | 0.00 | 70 | 1018.1 |
| 20260830214024 | 84 | 0 | 0.0 | 0.0 | 0.00 | 0.00 | 0.00 | 72 | 1018.7 |
| 20260830213840 | 84 | 180 | 0.0 | 0.0 | 0.00 | 0.00 | 0.00 | 70 | 1018.1 |
| 20260830213524 | 84 | 0 | 0.0 | 2.0 | 0.00 | 0.00 | 0.00 | 71 | 1018.6 |
| 20260830213357 | 84 | 181 | 0.0 | 2.0 | 0.00 | 0.00 | 0.00 | 70 | 1018.1 |
| 20260830213050 | 83 | 0 | 0.0 | 2.0 | 0.00 | 0.00 | 0.00 | 71 | 1018.6 |
| 20260830212833 | 83 | 180 | 0.0 | 2.0 | 0.00 | 0.00 | 0.00 | 74 | 1018.1 |
| 20260830212527 | 83 | 0 | 0.0 | 0.0 | 0.00 | 0.00 | 0.00 | 73 | 1018.7 |
| 20260830212348 | 83 | 215 | 0.0 | 0.0 | 0.00 | 0.00 | 0.00 | 75 | 1018.1 |
| 20260830212025 | 83 | 0 | 0.0 | 0.0 | 0.00 | 0.00 | 0.00 | 74 | 1018.7 |
| 20260830211846 | 83 | 215 | 0.0 | 0.0 | 0.00 | 0.00 | 0.00 | 76 | 1018.2 |
| 20260830211545 | 83 | 0 | 0.0 | 0.0 | 0.00 | 0.00 | 0.00 | 75 | 1018.7 |
| 20260830211343 | 83 | 215 | 0.0 | 0.0 | 0.00 | 0.00 | 0.00 | 75 | 1018.1 |
| 20260830211027 | 83 | 0 | 0.0 | 0.0 | 0.00 | 0.00 | 0.00 | 74 | 1018.7 |
| 20260830210838 | 84 | 215 | 0.0 | 0.0 | 0.00 | 0.00 | 0.00 | 74 | 1018.1 |
| 20260830210524 | 83 | 0 | 0.0 | 0.0 | 0.00 | 0.00 | 0.00 | 73 | 1018.7 |
| 20260830210334 | 84 | 215 | 0.0 | 0.0 | 0.00 | 0.00 | 0.00 | 74 | 1018.2 |
| 20260830210051 | 83 | 0 | 0.0 | 0.0 | 0.00 | 0.00 | 0.00 | 74 | 1018.8 |
| 20260830205852 | 84 | 215 | 0.0 | 0.0 | 0.00 | 0.00 | 0.00 | 75 | 1018.2 |
| 20260830205524 | 84 | 0 | 0.0 | 0.0 | 0.00 | 0.00 | 0.00 | 73 | 1018.7 |
| 20260830205412 | 84 | 215 | 0.0 | 0.0 | 0.00 | 0.00 | 0.00 | 73 | 1018.1 |
| 20260830205029 | 84 | 0 | 0.0 | 0.0 | 0.00 | 0.00 | 0.00 | 72 | 1018.7 |
| 20260830204844 | 84 | 215 | 0.0 | 0.0 | 0.00 | 0.00 | 0.00 | 72 | 1018.1 |
| 20260830204544 | 84 | 0 | 0.0 | 0.0 | 0.00 | 0.00 | 0.00 | 71 | 1018.8 |
| 20260830204402 | 84 | 215 | 0.0 | 0.0 | 0.00 | 0.00 | 0.00 | 69 | 1018.3 |
| 20260830204024 | 84 | 0 | 0.0 | 0.0 | 0.00 | 0.00 | 0.00 | 68 | 1018.9 |
| 20260830203841 | 85 | 215 | 0.0 | 0.0 | 0.00 | 0.00 | 0.00 | 68 | 1018.3 |
| 20260830203529 | 84 | 0 | 0.0 | 0.0 | 0.00 | 0.00 | 0.00 | 67 | 1019.0 |
| 20260830203355 | 85 | 215 | 0.0 | 0.0 | 0.00 | 0.00 | 0.00 | 67 | 1018.4 |
| 20260830203114 | 84 | 0 | 0.0 | 3.0 | 0.00 | 0.00 | 0.00 | 68 | 1019.1 |
| 20260830202831 | 85 | 215 | 0.0 | 3.0 | 0.00 | 0.00 | 0.00 | 69 | 1018.5 |
| 20260830202528 | 84 | 0 | 0.0 | 3.0 | 0.00 | 0.00 | 0.00 | 68 | 1019.2 |
| 20260830202348 | 85 | 216 | 0.0 | 3.0 | 0.00 | 0.00 | 0.00 | 68 | 1018.6 |
| 20260830202025 | 84 | 278 | 0.0 | 5.0 | 0.00 | 0.00 | 0.00 | 68 | 1019.2 |
| 20260830201846 | 85 | 286 | 1.0 | 3.0 | 0.00 | 0.00 | 0.00 | 68 | 1018.6 |
| 20260830201549 | 84 | 0 | 0.0 | 5.0 | 0.00 | 0.00 | 0.00 | 69 | 1019.2 |
| 20260830201338 | 85 | 244 | 0.0 | 5.0 | 0.00 | 0.00 | 0.00 | 69 | 1018.6 |
| 20260830201025 | 84 | 0 | 0.0 | 5.0 | 0.00 | 0.00 | 0.00 | 69 | 1019.1 |
| 20260830200853 | 84 | 200 | 0.0 | 4.0 | 0.00 | 0.00 | 0.00 | 70 | 1018.5 |
| 20260830200529 | 84 | 0 | 0.0 | 5.0 | 0.00 | 0.00 | 0.00 | 69 | 1019.1 |
| 20260830200352 | 84 | 190 | 0.0 | 5.0 | 0.00 | 0.00 | 0.00 | 68 | 1018.4 |
| 20260830200048 | 84 | 0 | 0.0 | 5.0 | 0.00 | 0.00 | 0.00 | 69 | 1019.1 |
| 20260830195909 | 84 | 221 | 0.0 | 1.0 | 0.00 | 0.00 | 0.00 | 70 | 1018.5 |
| 20260830195525 | 84 | 0 | 0.0 | 1.0 | 0.00 | 0.00 | 0.00 | 71 | 1019.0 |
| 20260830195346 | 84 | 222 | 0.0 | 1.0 | 0.00 | 0.00 | 0.00 | 72 | 1018.5 |
| 20260830195026 | 84 | 0 | 0.0 | 1.0 | 0.00 | 0.00 | 0.00 | 69 | 1019.1 |
| 20260830194843 | 84 | 250 | 0.0 | 1.0 | 0.00 | 0.00 | 0.00 | 69 | 1018.5 |
| 20260830194555 | 84 | 0 | 0.0 | 3.0 | 0.00 | 0.00 | 0.00 | 69 | 1019.2 |
| 20260830194345 | 85 | 246 | 0.0 | 3.0 | 0.00 | 0.00 | 0.00 | 70 | 1018.7 |
| 20260830194027 | 84 | 0 | 0.0 | 3.0 | 0.00 | 0.00 | 0.00 | 69 | 1019.2 |
| 20260830193844 | 84 | 233 | 0.0 | 3.0 | 0.00 | 0.00 | 0.00 | 69 | 1018.7 |
| 20260830193529 | 84 | 0 | 0.0 | 5.0 | 0.00 | 0.00 | 0.00 | 70 | 1019.2 |
| 20260830193342 | 84 | 286 | 0.0 | 5.0 | 0.00 | 0.00 | 0.00 | 70 | 1018.7 |
| 20260830193052 | 84 | 310 | 0.0 | 7.0 | 0.00 | 0.00 | 0.00 | 69 | 1019.3 |
| 20260830192840 | 84 | 277 | 1.0 | 6.0 | 0.00 | 0.00 | 0.00 | 71 | 1018.8 |
| 20260830192527 | 83 | 0 | 0.0 | 7.0 | 0.00 | 0.00 | 0.00 | 70 | 1019.3 |
| 20260830192333 | 84 | 204 | 0.0 | 6.0 | 0.00 | 0.00 | 0.00 | 70 | 1018.8 |
| 20260830192031 | 83 | 205 | 1.0 | 6.0 | 0.00 | 0.00 | 0.00 | 71 | 1019.5 |
| 20260830191848 | 84 | 185 | 1.0 | 4.0 | 0.00 | 0.00 | 0.00 | 71 | 1018.9 |
| 20260830191554 | 83 | 0 | 0.0 | 3.0 | 0.00 | 0.00 | 0.00 | 72 | 1019.5 |
| 20260830191346 | 84 | 193 | 0.0 | 3.0 | 0.00 | 0.00 | 0.00 | 70 | 1019.1 |
| 20260830191023 | 83 | 0 | 0.0 | 2.0 | 0.00 | 0.00 | 0.00 | 70 | 1019.7 |
| 20260830190844 | 83 | 202 | 0.0 | 2.0 | 0.00 | 0.00 | 0.00 | 71 | 1019.2 |
| 20260830190527 | 83 | 0 | 0.0 | 9.0 | 0.00 | 0.00 | 0.00 | 71 | 1019.8 |
| 20260830190337 | 83 | 203 | 0.0 | 8.0 | 0.00 | 0.00 | 0.00 | 71 | 1019.4 |
| 20260830190046 | 83 | 0 | 0.0 | 9.0 | 0.00 | 0.00 | 0.00 | 72 | 1019.9 |
| 20260830185834 | 83 | 229 | 0.0 | 8.0 | 0.00 | 0.00 | 0.00 | 73 | 1019.4 |
| 20260830185529 | 82 | 0 | 0.0 | 2.0 | 0.00 | 0.00 | 0.00 | 74 | 1020.0 |
| 20260830185353 | 83 | 300 | 0.0 | 2.0 | 0.00 | 0.00 | 0.00 | 74 | 1019.5 |
| 20260830185024 | 82 | 0 | 0.0 | 5.0 | 0.00 | 0.00 | 0.00 | 73 | 1020.0 |
| 20260830184908 | 82 | 296 | 1.0 | 5.0 | 0.00 | 0.00 | 0.00 | 75 | 1019.6 |
| 20260830184551 | 82 | 0 | 0.0 | 5.0 | 0.00 | 0.00 | 0.00 | 75 | 1020.1 |
| 20260830184342 | 82 | 137 | 0.0 | 5.0 | 0.00 | 0.00 | 0.00 | 76 | 1019.7 |
| 20260830184026 | 81 | 0 | 0.0 | 5.0 | 0.00 | 0.00 | 0.00 | 76 | 1020.3 |
| 20260830183836 | 82 | 346 | 0.0 | 2.0 | 0.00 | 0.00 | 0.00 | 76 | 1019.7 |
| 20260830183528 | 81 | 0 | 0.0 | 2.0 | 0.00 | 0.00 | 0.00 | 75 | 1020.3 |
| 20260830183335 | 82 | 190 | 0.0 | 2.0 | 0.00 | 0.00 | 0.00 | 75 | 1019.9 |
| 20260830183101 | 81 | 342 | 0.0 | 5.0 | 0.00 | 0.00 | 0.00 | 74 | 1020.4 |
| 20260830182908 | 81 | 198 | 0.0 | 2.0 | 0.00 | 0.00 | 0.00 | 75 | 1019.9 |
| 20260830182526 | 81 | 0 | 0.0 | 5.0 | 0.00 | 0.00 | 0.00 | 76 | 1020.3 |
| 20260830182420 | 81 | 225 | 0.0 | 5.0 | 0.00 | 0.00 | 0.00 | 77 | 1020.0 |
| 20260830182026 | 81 | 0 | 0.0 | 5.0 | 0.00 | 0.00 | 0.00 | 77 | 1020.4 |
| 20260830181840 | 81 | 209 | 0.0 | 3.0 | 0.00 | 0.00 | 0.00 | 77 | 1020.0 |
| 20260830181555 | 80 | 0 | 0.0 | 5.0 | 0.00 | 0.00 | 0.00 | 77 | 1020.4 |
| 20260830181414 | 81 | 219 | 0.0 | 5.0 | 0.00 | 0.00 | 0.00 | 78 | 1020.1 |
| 20260830181031 | 80 | 0 | 0.0 | 5.0 | 0.00 | 0.00 | 0.00 | 78 | 1020.6 |
| 20260830180842 | 80 | 166 | 0.0 | 5.0 | 0.00 | 0.00 | 0.00 | 79 | 1020.3 |
| 20260830180526 | 79 | 203 | 0.0 | 5.0 | 0.00 | 0.00 | 0.00 | 79 | 1020.7 |
| 20260830180335 | 80 | 165 | 1.0 | 5.0 | 0.00 | 0.00 | 0.00 | 81 | 1020.5 |
| 20260830180046 | 79 | 0 | 0.0 | 2.0 | 0.00 | 0.00 | 0.00 | 79 | 1020.9 |
| 20260830175915 | 79 | 196 | 0.0 | 2.0 | 0.00 | 0.00 | 0.00 | 80 | 1020.6 |
| 20260830175526 | 79 | 0 | 0.0 | 1.0 | 0.00 | 0.00 | 0.00 | 79 | 1021.1 |
| 20260830175346 | 79 | 190 | 0.0 | 1.0 | 0.00 | 0.00 | 0.00 | 80 | 1020.7 |
| 20260830175025 | 79 | 0 | 0.0 | 1.0 | 0.00 | 0.00 | 0.00 | 80 | 1021.3 |
| 20260830174858 | 79 | 190 | 0.0 | 1.0 | 0.00 | 0.00 | 0.00 | 80 | 1020.8 |
| 20260830174551 | 79 | 0 | 0.0 | 2.0 | 0.00 | 0.00 | 0.00 | 79 | 1021.3 |
| 20260830174346 | 79 | 133 | 0.0 | 2.0 | 0.00 | 0.00 | 0.00 | 80 | 1020.8 |
| 20260830174026 | 79 | 0 | 0.0 | 3.0 | 0.00 | 0.00 | 0.00 | 79 | 1021.3 |
| 20260830173841 | 79 | 165 | 0.0 | 3.0 | 0.00 | 0.00 | 0.00 | 78 | 1020.8 |
| 20260830173529 | 79 | 0 | 0.0 | 3.0 | 0.00 | 0.00 | 0.00 | 77 | 1021.4 |
| 20260830173334 | 80 | 167 | 0.0 | 3.0 | 0.00 | 0.00 | 0.00 | 78 | 1020.9 |
| 20260830173110 | 79 | 0 | 0.0 | 3.0 | 0.00 | 0.00 | 0.00 | 77 | 1021.5 |
| 20260830172909 | 80 | 161 | 0.0 | 3.0 | 0.00 | 0.00 | 0.00 | 78 | 1021.0 |
| 20260830172528 | 79 | 0 | 0.0 | 2.0 | 0.00 | 0.00 | 0.00 | 76 | 1021.6 |
| 20260830172400 | 80 | 245 | 0.0 | 2.0 | 0.00 | 0.00 | 0.00 | 77 | 1021.1 |
| 20260830172027 | 80 | 0 | 0.0 | 2.0 | 0.00 | 0.00 | 0.00 | 77 | 1021.7 |
| 20260830171851 | 80 | 296 | 0.0 | 2.0 | 0.00 | 0.00 | 0.00 | 77 | 1021.2 |
| 20260830171548 | 80 | 0 | 0.0 | 2.0 | 0.00 | 0.00 | 0.00 | 77 | 1021.8 |
| 20260830171341 | 80 | 187 | 0.0 | 2.0 | 0.00 | 0.00 | 0.00 | 77 | 1021.2 |
| 20260830171026 | 80 | 0 | 0.0 | 2.0 | 0.00 | 0.00 | 0.00 | 77 | 1021.8 |
| 20260830170853 | 80 | 207 | 0.0 | 2.0 | 0.00 | 0.00 | 0.00 | 77 | 1021.3 |
| 20260830170525 | 80 | 0 | 0.0 | 3.0 | 0.00 | 0.00 | 0.00 | 76 | 1021.8 |
| 20260830170407 | 81 | 133 | 0.0 | 3.0 | 0.00 | 0.00 | 0.00 | 77 | 1021.3 |
| 20260830170046 | 80 | 0 | 0.0 | 3.0 | 0.00 | 0.00 | 0.00 | 75 | 1021.8 |
| 20260830165839 | 81 | 102 | 1.0 | 3.0 | 0.00 | 0.00 | 0.00 | 76 | 1021.4 |
| 20260830165527 | 81 | 0 | 0.0 | 5.0 | 0.00 | 0.00 | 0.00 | 75 | 1021.8 |
| 20260830165338 | 81 | 152 | 0.0 | 5.0 | 0.00 | 0.00 | 0.00 | 77 | 1021.4 |
| 20260830165025 | 80 | 0 | 0.0 | 5.0 | 0.00 | 0.00 | 0.00 | 75 | 1021.8 |
| 20260830164848 | 81 | 197 | 1.0 | 5.0 | 0.00 | 0.00 | 0.00 | 76 | 1021.3 |
| 20260830164609 | 80 | 0 | 0.0 | 8.0 | 0.00 | 0.00 | 0.00 | 75 | 1022.0 |
| 20260830164343 | 81 | 194 | 0.0 | 8.0 | 0.00 | 0.00 | 0.00 | 77 | 1021.4 |
| 20260830164027 | 80 | 0 | 0.0 | 8.0 | 0.00 | 0.00 | 0.00 | 75 | 1021.9 |
| 20260830163837 | 81 | 237 | 1.0 | 8.0 | 0.00 | 0.00 | 0.00 | 76 | 1021.4 |
| 20260830163525 | 80 | 224 | 0.0 | 6.0 | 0.00 | 0.00 | 0.00 | 76 | 1021.8 |
| 20260830163333 | 81 | 198 | 0.0 | 5.0 | 0.00 | 0.00 | 0.00 | 76 | 1021.4 |
| 20260830163059 | 80 | 266 | 0.0 | 4.0 | 0.00 | 0.00 | 0.00 | 76 | 1022.0 |
| 20260830162849 | 80 | 167 | 1.0 | 4.0 | 0.00 | 0.00 | 0.00 | 77 | 1021.5 |
| 20260830162525 | 79 | 0 | 0.0 | 2.0 | 0.00 | 0.00 | 0.00 | 78 | 1022.1 |
| 20260830162343 | 80 | 171 | 0.0 | 2.0 | 0.00 | 0.00 | 0.00 | 79 | 1021.6 |
| 20260830162024 | 79 | 0 | 0.0 | 8.0 | 0.00 | 0.00 | 0.00 | 78 | 1022.1 |
| 20260830161839 | 80 | 192 | 0.0 | 7.0 | 0.00 | 0.00 | 0.00 | 78 | 1021.6 |
| 20260830161545 | 80 | 0 | 0.0 | 8.0 | 0.00 | 0.00 | 0.00 | 78 | 1022.1 |
| 20260830161337 | 80 | 208 | 1.0 | 7.0 | 0.00 | 0.00 | 0.00 | 79 | 1021.7 |
| 20260830161024 | 79 | 0 | 0.0 | 7.0 | 0.00 | 0.00 | 0.00 | 81 | 1022.2 |
| 20260830160853 | 79 | 183 | 0.0 | 6.0 | 0.00 | 0.00 | 0.00 | 79 | 1021.7 |
| 20260830160527 | 79 | 215 | 0.0 | 7.0 | 0.00 | 0.00 | 0.00 | 78 | 1022.3 |
| 20260830160332 | 79 | 208 | 1.0 | 6.0 | 0.00 | 0.00 | 0.00 | 79 | 1021.8 |
| 20260830160045 | 79 | 0 | 0.0 | 4.0 | 0.00 | 0.00 | 0.00 | 79 | 1022.3 |
| 20260830155846 | 79 | 224 | 0.0 | 4.0 | 0.00 | 0.00 | 0.00 | 80 | 1021.9 |
| 20260830155525 | 78 | 0 | 0.0 | 4.0 | 0.00 | 0.00 | 0.00 | 80 | 1022.3 |
| 20260830155340 | 79 | 90 | 0.0 | 1.0 | 0.00 | 0.00 | 0.00 | 81 | 1021.9 |
| 20260830155027 | 78 | 0 | 0.0 | 1.0 | 0.00 | 0.00 | 0.00 | 81 | 1022.4 |
| 20260830154837 | 78 | 235 | 0.0 | 1.0 | 0.00 | 0.00 | 0.00 | 81 | 1021.9 |
| 20260830154552 | 78 | 0 | 0.0 | 1.0 | 0.00 | 0.00 | 0.00 | 81 | 1022.3 |
| 20260830154356 | 78 | 185 | 0.0 | 1.0 | 0.00 | 0.00 | 0.00 | 81 | 1022.0 |
| 20260830154026 | 78 | 0 | 0.0 | 1.0 | 0.00 | 0.00 | 0.00 | 82 | 1022.4 |
| 20260830153851 | 78 | 178 | 0.0 | 1.0 | 0.00 | 0.00 | 0.00 | 82 | 1022.0 |
| 20260830153525 | 77 | 0 | 0.0 | 3.0 | 0.00 | 0.00 | 0.00 | 82 | 1022.4 |
| 20260830153346 | 78 | 193 | 0.0 | 3.0 | 0.00 | 0.00 | 0.00 | 82 | 1022.0 |
| 20260830153045 | 77 | 0 | 0.0 | 4.0 | 0.00 | 0.00 | 0.00 | 82 | 1022.5 |
| 20260830152904 | 77 | 190 | 0.0 | 4.0 | 0.00 | 0.00 | 0.00 | 83 | 1022.1 |
| 20260830152529 | 77 | 0 | 0.0 | 4.0 | 0.00 | 0.00 | 0.00 | 83 | 1022.4 |
| 20260830152403 | 77 | 163 | 1.0 | 4.0 | 0.00 | 0.00 | 0.00 | 84 | 1022.0 |
| 20260830152027 | 76 | 0 | 0.0 | 6.0 | 0.00 | 0.00 | 0.00 | 83 | 1022.4 |
| 20260830151839 | 77 | 190 | 0.0 | 6.0 | 0.00 | 0.00 | 0.00 | 84 | 1022.0 |
| 20260830151546 | 76 | 0 | 0.0 | 6.0 | 0.00 | 0.00 | 0.00 | 82 | 1022.4 |
| 20260830151337 | 77 | 226 | 0.0 | 6.0 | 0.00 | 0.00 | 0.00 | 83 | 1021.9 |
| 20260830151024 | 77 | 191 | 0.0 | 6.0 | 0.00 | 0.00 | 0.00 | 83 | 1022.3 |
| 20260830150836 | 77 | 157 | 0.0 | 6.0 | 0.00 | 0.00 | 0.00 | 84 | 1021.9 |
| 20260830150526 | 77 | 0 | 0.0 | 6.0 | 0.00 | 0.00 | 0.00 | 84 | 1022.2 |
| 20260830150331 | 77 | 242 | 0.0 | 6.0 | 0.00 | 0.00 | 0.00 | 84 | 1021.8 |
| 20260830150048 | 77 | 0 | 0.0 | 6.0 | 0.00 | 0.00 | 0.00 | 84 | 1022.2 |
| 20260830145849 | 77 | 175 | 1.0 | 5.0 | 0.00 | 0.00 | 0.00 | 85 | 1021.8 |
| 20260830145526 | 76 | 0 | 0.0 | 5.0 | 0.00 | 0.00 | 0.00 | 85 | 1022.2 |
| 20260830145345 | 76 | 138 | 0.0 | 5.0 | 0.00 | 0.00 | 0.00 | 85 | 1021.7 |
| 20260830145024 | 75 | 0 | 0.0 | 4.0 | 0.00 | 0.00 | 0.00 | 85 | 1022.2 |
| 20260830144905 | 76 | 181 | 1.0 | 4.0 | 0.00 | 0.00 | 0.00 | 86 | 1021.8 |
| 20260830144601 | 75 | 0 | 0.0 | 3.0 | 0.00 | 0.00 | 0.00 | 86 | 1022.1 |
| 20260830144341 | 76 | 177 | 0.0 | 3.0 | 0.00 | 0.00 | 0.00 | 87 | 1021.8 |
| 20260830144024 | 75 | 0 | 0.0 | 3.0 | 0.00 | 0.00 | 0.00 | 86 | 1022.3 |
| 20260830143836 | 75 | 177 | 0.0 | 3.0 | 0.00 | 0.00 | 0.00 | 87 | 1021.8 |
| 20260830143526 | 75 | 0 | 0.0 | 3.0 | 0.00 | 0.00 | 0.00 | 87 | 1022.3 |
| 20260830143349 | 75 | 188 | 0.0 | 3.0 | 0.00 | 0.00 | 0.00 | 87 | 1021.8 |
| 20260830143051 | 75 | 0 | 0.0 | 2.0 | 0.00 | 0.00 | 0.00 | 87 | 1022.4 |
| 20260830142843 | 75 | 138 | 0.0 | 2.0 | 0.00 | 0.00 | 0.00 | 87 | 1022.0 |
| 20260830142525 | 75 | 0 | 0.0 | 3.0 | 0.00 | 0.00 | 0.00 | 87 | 1022.4 |
| 20260830142339 | 75 | 168 | 0.0 | 3.0 | 0.00 | 0.00 | 0.00 | 88 | 1022.0 |